Location: Dackenheim
(49.5215°N, 8.1854°E)
Time: 15:21:03
(UTC+00:00)

BlueWalker 3 - Pass Details

Date: 22 January 2026
Orbit: 451 x 461 km, 53.2° (Epoch: 16 February)

Event Time Altitude Azimuth Distance (km) Brightness Sun altitude
Rises 18:20:35 0° 230° (SW) 2,448 6.3 -21.4°
Reaches altitude 10° 18:22:44 10° 226° (SW) 1,578 5.1 -21.8°
Enters shadow 18:25:25 42° 195° (SSW) 650 2.5 -22.2°
